| time (UTC) | temp F | wind direction | speed MPH | gust MPH | rain 1hr in | rain 24hr in | rain mn in | humidity % | barometer mb |
| 20260503220022 | 40 | 325 | 8.0 | 18.0 | 0.00 | 0.00 | 0.00 | 78 | 1009.8 |
| 20260503214522 | 40 | 290 | 8.0 | 18.0 | 0.00 | 0.00 | 0.00 | 78 | 1009.6 |
| 20260503213014 | 41 | 338 | 10.0 | 17.0 | 0.00 | 0.00 | 0.00 | 77 | 1009.6 |
| 20260503211512 | 41 | 355 | 8.0 | 14.0 | 0.00 | 0.00 | 0.00 | 77 | 1009.6 |
| 20260503210012 | 41 | 314 | 8.0 | 17.0 | 0.00 | 0.00 | 0.00 | 76 | 1009.5 |
| 20260503204517 | 41 | 325 | 13.0 | 19.0 | 0.00 | 0.00 | 0.00 | 76 | 1009.5 |
| 20260503203010 | 41 | 303 | 9.0 | 17.0 | 0.00 | 0.00 | 0.00 | 76 | 1009.4 |
| 20260503201510 | 41 | 326 | 10.0 | 16.0 | 0.00 | 0.00 | 0.00 | 75 | 1009.3 |
| 20260503200007 | 41 | 317 | 9.0 | 16.0 | 0.00 | 0.00 | 0.00 | 75 | 1009.4 |
| 20260503194505 | 42 | 328 | 7.0 | 16.0 | 0.00 | 0.00 | 0.00 | 75 | 1009.4 |
| 20260503193003 | 42 | 293 | 9.0 | 16.0 | 0.00 | 0.00 | 0.00 | 75 | 1009.2 |
| 20260503191501 | 42 | 331 | 9.0 | 18.0 | 0.00 | 0.00 | 0.00 | 74 | 1009.2 |
| 20260503190103 | 42 | 340 | 12.0 | 15.0 | 0.00 | 0.00 | 0.00 | 73 | 1009.2 |
| 20260503184657 | 43 | 301 | 10.0 | 16.0 | 0.00 | 0.00 | 0.00 | 74 | 1009.1 |
| 20260503183057 | 43 | 327 | 8.0 | 15.0 | 0.00 | 0.00 | 0.00 | 72 | 1009.0 |
| 20260503181602 | 44 | 323 | 8.0 | 14.0 | 0.00 | 0.00 | 0.00 | 73 | 1009.0 |
| 20260503180106 | 45 | 306 | 8.0 | 16.0 | 0.00 | 0.00 | 0.00 | 72 | 1009.1 |
| 20260503174554 | 45 | 326 | 10.0 | 16.0 | 0.00 | 0.00 | 0.00 | 71 | 1009.1 |
| 20260503173104 | 46 | 290 | 7.0 | 15.0 | 0.00 | 0.00 | 0.00 | 72 | 1009.1 |
| 20260503171552 | 46 | 344 | 10.0 | 15.0 | 0.00 | 0.00 | 0.00 | 69 | 1009.1 |
| 20260503081551 | 46 | 315 | 8.0 | 13.0 | 0.00 | 0.03 | 0.00 | 79 | 1011.7 |
| 20260503071551 | 44 | 311 | 6.0 | 12.0 | 0.00 | 0.03 | 0.00 | 83 | 1011.7 |
| 20260503060107 | 42 | 327 | 7.0 | 10.0 | 0.00 | 0.03 | 0.00 | 84 | 1011.6 |
| 20260503054540 | 42 | 328 | 8.0 | 12.0 | 0.00 | 0.03 | 0.00 | 83 | 1011.8 |
| 20260503053037 | 42 | 319 | 5.0 | 9.0 | 0.00 | 0.03 | 0.00 | 84 | 1011.7 |
| 20260503051536 | 42 | 324 | 9.0 | 15.0 | 0.00 | 0.03 | 0.00 | 83 | 1011.5 |
| 20260503050035 | 42 | 315 | 7.0 | 14.0 | 0.00 | 0.03 | 0.00 | 83 | 1011.4 |
| 20260503044533 | 42 | 338 | 8.0 | 13.0 | 0.00 | 0.03 | 0.00 | 84 | 1011.4 |
| 20260503043040 | 41 | 330 | 4.0 | 10.0 | 0.00 | 0.03 | 0.00 | 83 | 1011.5 |
| 20260503041528 | 41 | 310 | 3.0 | 9.0 | 0.00 | 0.03 | 0.00 | 84 | 1011.6 |
| 20260503040027 | 41 | 321 | 1.0 | 8.0 | 0.00 | 0.03 | 0.00 | 84 | 1011.7 |
| 20260503034526 | 41 | 315 | 2.0 | 6.0 | 0.00 | 0.03 | 0.00 | 85 | 1011.6 |
| 20260503033032 | 41 | 339 | 3.0 | 9.0 | 0.00 | 0.03 | 0.00 | 85 | 1011.5 |
| 20260503031523 | 41 | 331 | 3.0 | 11.0 | 0.00 | 0.03 | 0.00 | 85 | 1011.4 |
| 20260503030021 | 41 | 340 | 8.0 | 14.0 | 0.00 | 0.03 | 0.00 | 85 | 1011.3 |
| 20260503024525 | 41 | 325 | 7.0 | 13.0 | 0.00 | 0.03 | 0.00 | 86 | 1011.3 |
| 20260503023016 | 42 | 323 | 6.0 | 12.0 | 0.00 | 0.03 | 0.00 | 86 | 1011.4 |
| 20260503021615 | 42 | 310 | 5.0 | 9.0 | 0.00 | 0.03 | 0.00 | 86 | 1011.5 |
| 20260503020014 | 42 | 292 | 4.0 | 10.0 | 0.00 | 0.03 | 0.00 | 87 | 1011.4 |
| 20260503014512 | 42 | 325 | 4.0 | 8.0 | 0.00 | 0.03 | 0.00 | 87 | 1011.3 |
| 20260503013011 | 42 | 337 | 5.0 | 11.0 | 0.00 | 0.03 | 0.00 | 88 | 1011.2 |
| 20260503011510 | 42 | 328 | 6.0 | 12.0 | 0.00 | 0.03 | 0.00 | 88 | 1011.2 |
| 20260503010008 | 42 | 322 | 7.0 | 13.0 | 0.00 | 0.03 | 0.00 | 88 | 1011.2 |
| 20260503004505 | 43 | 329 | 8.0 | 13.0 | 0.00 | 0.03 | 0.00 | 88 | 1011.4 |
| 20260503003007 | 43 | 328 | 4.0 | 9.0 | 0.00 | 0.03 | 0.00 | 88 | 1011.4 |
| 20260503001502 | 43 | 355 | 5.0 | 11.0 | 0.00 | 0.03 | 0.00 | 88 | 1011.4 |
| 20260503000059 | 43 | 340 | 5.0 | 11.0 | 0.00 | 0.03 | 0.00 | 89 | 1011.5 |
| 20260502234557 | 44 | 292 | 4.0 | 9.0 | 0.00 | 0.03 | 0.00 | 89 | 1011.4 |
| 20260502233055 | 44 | 318 | 5.0 | 10.0 | 0.00 | 0.03 | 0.00 | 89 | 1011.4 |
| 20260502231553 | 45 | 311 | 6.0 | 12.0 | 0.00 | 0.03 | 0.00 | 89 | 1011.4 |
| 20260502230051 | 45 | 338 | 4.0 | 8.0 | 0.00 | 0.03 | 0.00 | 89 | 1011.5 |
| 20260502224549 | 45 | 316 | 4.0 | 9.0 | 0.00 | 0.03 | 0.00 | 89 | 1011.5 |
| 20260502223047 | 45 | 331 | 2.0 | 5.0 | 0.00 | 0.03 | 0.00 | 89 | 1011.4 |
| 20260502221644 | 45 | 334 | 2.0 | 10.0 | 0.00 | 0.03 | 0.00 | 89 | 1011.4 |